Starlink 30252

operational
NORAD ID: 57607 Int'l Des: 2023-119 Owner: SPXS Country: US Constellation: starlink
LEOCIRCULAR

Starlink 30252について

説明を読み込み中...

リアルタイム位置

3D地球を読み込み中...

次回通過

高度履歴

Altitude vs Time

uPlot chart will show altitude changes over time

軌道要素

1 57607U 23119F 25258.19502136 .00000402 00000-0 44864-4 0 9996
2 57607 43.0026 302.7471 0001364 276.7721 83.2966 15.02538044116837
Epoch: Sep 15, 2025 • Age: 13 hours

現在のステータス

高度 562.4 km
速度 7.59 km/s
衛星直下点 39.64°N, 153.69°E
打ち上げ日 Aug 11, 2023
運用期間 2 years
タイプ internet

技術仕様

分類 Payload
質量 730.00 kg
乾燥質量 700.00 kg
総質量 730.00 kg
長さ 0.30 m
直径 4.10 m
スパン 29.00 m
形状 Box + pan
製造者 SPXS
バスタイプ Starlink V2M
フェーズステータス In Orbit
所有者/国 SPXS/US

大規模コンステレーション

Loading constellations...